Weather History for KFAM - January, 2013

Change the Weather History Date:

Thursday, January 10, 2013

  Actual Average Record
Temperature  
Mean Temperature 50 °F -  
Max Temperature 60 °F 38 °F - (-1)
Min Temperature 41 °F 23 °F - (-1)
Degree Days  
Heating Degree Days 14    
Moisture  
Dew Point 46 °F    
Average Humidity 87    
Maximum Humidity 100    
Minimum Humidity 66    
Precipitation  
Precipitation 0.32 in - - ()
Sea Level Pressure  
Sea Level Pressure 30.11 in    
Wind  
Wind Speed 8 mph (SE)    
Max Wind Speed 17 mph    
Max Gust Speed 30 mph    
Visibility 6 miles    
Events Thunderstorm    
Averages and records for this station are not official NWS values.
T = Trace of Precipitation, MM = Missing Value Source: NWS Daily Summary

Daily Weather History Graph

Daily Weather History Graph

Search for Another Location

Airport or City:

Trip Planner

Search our weather history database for the weather conditions in past years. The results will help you decide how hot, cold, wet, or windy it might be!

Date:

Astronomy

Jan. 10, 2013 Rise Set
Actual Time 7:17 AM CST 5:02 PM CST
Civil Twilight 6:48 AM CST 5:30 PM CST
Nautical Twilight 6:15 AM CST 6:03 PM CST
Astronomical Twilight 5:44 AM CST 6:35 PM CST
Moon 5:57 AM CST (1/10) 4:09 PM CST (1/10)
Length of Visible Light 10h 42m
Length of Day
9h 44m
Waning Crescent, 2% of the Moon is Illuminated
Jan 10
Waning Crescent
Jan 11
New
Jan 18
First Quarter
Jan 26
Full
Feb 3
Last Quarter

Hourly Weather History & Observations

Time (CST) Temp. Windchill Dew Point Humidity Pressure Visibility Wind Dir Wind Speed Gust Speed Precip Events Conditions
12:15 AM 44.6 °F 40.7 °F 33.8 °F 66% 30.44 in 10.0 mi East 6.9 mph - N/A   Scattered Clouds
12:35 AM 44.6 °F 41.4 °F 33.8 °F 66% 30.43 in 10.0 mi East 5.8 mph - N/A   Partly Cloudy
12:55 AM 44.6 °F 40.2 °F 33.8 °F 66% 30.42 in 10.0 mi East 8.1 mph - N/A   Mostly Cloudy
1:15 AM 44.6 °F 40.2 °F 33.8 °F 66% 30.41 in 10.0 mi East 8.1 mph - N/A   Overcast
1:35 AM 44.6 °F 39.2 °F 35.6 °F 71% 30.41 in 10.0 mi East 10.4 mph - N/A   Overcast
1:55 AM 44.6 °F 40.2 °F 33.8 °F 66% 30.40 in 10.0 mi East 8.1 mph - N/A   Overcast
2:15 AM 44.6 °F 40.2 °F 33.8 °F 66% 30.40 in 10.0 mi East 8.1 mph - N/A   Overcast
2:35 AM 44.6 °F 40.7 °F 33.8 °F 66% 30.40 in 10.0 mi East 6.9 mph - N/A   Overcast
2:55 AM 44.6 °F 41.4 °F 33.8 °F 66% 30.39 in 10.0 mi East 5.8 mph - N/A   Overcast
3:15 AM 44.6 °F 40.7 °F 33.8 °F 66% 30.38 in 10.0 mi East 6.9 mph - N/A   Overcast
3:35 AM 42.8 °F 38.6 °F 33.8 °F 70% 30.36 in 10.0 mi East 6.9 mph - N/A   Overcast
3:55 AM 42.8 °F 37.5 °F 33.8 °F 70% 30.34 in 10.0 mi East 9.2 mph - N/A   Overcast
4:15 AM 42.8 °F 37.5 °F 33.8 °F 70% 30.33 in 10.0 mi East 9.2 mph - N/A   Overcast
4:35 AM 42.8 °F 36.6 °F 35.6 °F 76% 30.30 in 10.0 mi East 11.5 mph - N/A   Overcast
4:55 AM 42.8 °F 38.0 °F 35.6 °F 76% 30.31 in 10.0 mi East 8.1 mph - N/A   Overcast
5:15 AM 42.8 °F 37.5 °F 35.6 °F 76% 30.30 in 10.0 mi East 9.2 mph - 0.01 in   Overcast
5:35 AM 41.0 °F 35.8 °F 35.6 °F 81% 30.29 in 10.0 mi East 8.1 mph - 0.02 in   Overcast
5:55 AM 41.0 °F 36.4 °F 35.6 °F 81% 30.29 in 5.0 mi East 6.9 mph - 0.02 in   Overcast
6:35 AM 41.0 °F 35.2 °F 37.4 °F 87% 30.26 in 7.0 mi East 9.2 mph 16.1 mph N/A   Overcast
6:55 AM 41.0 °F 35.8 °F 37.4 °F 87% 30.26 in 10.0 mi East 8.1 mph - N/A   Overcast
7:35 AM 41.0 °F 34.7 °F 37.4 °F 87% 30.27 in 5.0 mi ESE 10.4 mph - 0.02 in   Overcast
7:55 AM 41.0 °F 35.2 °F 37.4 °F 87% 30.27 in 2.5 mi East 9.2 mph - 0.08 in   Overcast
8:15 AM 41.0 °F 35.8 °F 39.2 °F 93% 30.26 in 1.5 mi East 8.1 mph - 0.02 in   Overcast
8:35 AM 41.0 °F 35.8 °F 39.2 °F 93% 30.25 in 2.0 mi East 8.1 mph - 0.03 in   Overcast
8:55 AM 41.0 °F 36.4 °F 39.2 °F 93% 30.26 in 5.0 mi ESE 6.9 mph - 0.03 in   Overcast
9:15 AM 42.8 °F 40.1 °F 39.2 °F 87% 30.25 in 1.2 mi East 4.6 mph - N/A   Overcast
9:35 AM 42.8 °F 39.3 °F 39.2 °F 87% 30.24 in 1.0 mi ESE 5.8 mph - N/A   Overcast
9:55 AM 42.8 °F 40.1 °F 39.2 °F 87% 30.23 in 1.2 mi East 4.6 mph - N/A   Overcast
10:15 AM 42.8 °F 38.6 °F 41.0 °F 93% 30.22 in 1.0 mi ESE 6.9 mph - 0.02 in   Overcast
10:35 AM 42.8 °F 40.1 °F 41.0 °F 93% 30.22 in 2.0 mi ESE 4.6 mph - 0.03 in   Overcast
10:55 AM 42.8 °F 40.1 °F 42.8 °F 100% 30.19 in 1.0 mi ESE 4.6 mph - 0.03 in   Overcast
11:15 AM 44.6 °F 40.7 °F 42.8 °F 93% 30.16 in 0.8 mi East 6.9 mph - N/A   Overcast
11:35 AM 44.6 °F 43.1 °F 44.6 °F 100% 30.14 in 0.8 mi ESE 3.5 mph - N/A   Overcast
11:55 AM 46.4 °F 43.5 °F 44.6 °F 93% 30.12 in 0.8 mi ESE 5.8 mph - N/A   Overcast
12:15 PM 48.2 °F - 46.4 °F 93% 30.11 in 0.5 mi SE 5.8 mph - N/A   Overcast
12:35 PM 48.2 °F - 46.4 °F 93% 30.09 in 0.5 mi ESE 8.1 mph - N/A   Overcast
12:55 PM 48.2 °F - 48.2 °F 100% 30.08 in 0.2 mi ESE 9.2 mph - N/A   Overcast
1:15 PM 50.0 °F - 48.2 °F 94% 30.06 in 0.2 mi ESE 12.7 mph - N/A   Overcast
1:35 PM 50.0 °F - 48.2 °F 94% 30.05 in 0.2 mi ESE 9.2 mph - N/A   Overcast
1:55 PM 51.8 °F - 50.0 °F 94% 30.03 in 1.0 mi SE 8.1 mph - N/A   Overcast
2:15 PM 51.8 °F - 51.8 °F 100% 30.01 in 2.0 mi SE 10.4 mph - N/A   Overcast
2:35 PM 51.8 °F - 51.8 °F 100% 29.99 in 2.5 mi ESE 12.7 mph - N/A   Overcast
2:55 PM 53.6 °F - 53.6 °F 100% 29.98 in 1.2 mi ESE 11.5 mph - N/A   Overcast
3:15 PM 53.6 °F - 53.6 °F 100% 29.96 in 0.5 mi SE 12.7 mph 18.4 mph N/A   Overcast
3:35 PM 53.6 °F - 53.6 °F 100% 29.96 in 1.2 mi SE 13.8 mph 17.3 mph N/A   Overcast
3:55 PM 55.4 °F - 53.6 °F 94% 29.97 in 4.0 mi SSE 10.4 mph - N/A   Overcast
4:15 PM 55.4 °F - 53.6 °F 94% 29.94 in 0.2 mi SE 9.2 mph - N/A   Overcast
4:35 PM 55.4 °F - 55.4 °F 100% 29.94 in 0.2 mi SE 9.2 mph 16.1 mph N/A   Overcast
4:55 PM 57.2 °F - 55.4 °F 94% 29.93 in 0.5 mi SE 9.2 mph - N/A   Overcast
5:15 PM 57.2 °F - 55.4 °F 94% 29.94 in 4.0 mi SE 12.7 mph - N/A   Overcast
5:35 PM 57.2 °F - 57.2 °F 100% 29.94 in 6.0 mi SSE 11.5 mph 17.3 mph N/A   Overcast
5:55 PM 57.2 °F - 57.2 °F 100% 29.93 in 9.0 mi SSE 5.8 mph - N/A   Overcast
6:15 PM 59.0 °F - 57.2 °F 94% 29.93 in 10.0 mi SSE 6.9 mph - N/A   Overcast
6:35 PM 59.0 °F - 59.0 °F 100% 29.93 in 10.0 mi South 9.2 mph - N/A   Overcast
6:55 PM 60.8 °F - 59.0 °F 94% 29.92 in 10.0 mi South 8.1 mph - N/A   Overcast
7:15 PM 60.8 °F - 57.2 °F 88% 29.91 in 10.0 mi SSE 8.1 mph - 0.01 in   Overcast
7:35 PM 60.8 °F - 57.2 °F 88% 29.89 in 9.0 mi SSE 9.2 mph - 0.04 in   Overcast
7:55 PM 60.8 °F - 57.2 °F 88% 29.88 in 8.0 mi SE 11.5 mph - 0.05 in   Overcast
8:15 PM 60.8 °F - 59.0 °F 94% 29.87 in 5.0 mi SSE 9.2 mph - 0.01 in   Overcast
8:35 PM 60.8 °F - 59.0 °F 94% 29.87 in 10.0 mi SSE 10.4 mph - 0.01 in Thunderstorm Overcast
8:55 PM 60.8 °F - 59.0 °F 94% 29.85 in 10.0 mi SSE 9.2 mph - 0.04 in   Overcast
9:15 PM 60.8 °F - 59.0 °F 94% 29.83 in 7.0 mi South 11.5 mph 18.4 mph 0.04 in   Overcast
9:35 PM 60.8 °F - 59.0 °F 94% 29.83 in 9.0 mi South 13.8 mph 19.6 mph 0.04 in   Overcast
9:55 PM 60.8 °F - 59.0 °F 94% 29.83 in 5.0 mi South 16.1 mph 21.9 mph 0.05 in   Overcast
10:15 PM 60.8 °F - 59.0 °F 94% 29.84 in 5.0 mi SSW 17.3 mph 29.9 mph 0.01 in   Overcast
10:35 PM 60.8 °F - 57.2 °F 88% 29.84 in 9.0 mi SSW 16.1 mph 23.0 mph 0.02 in   Overcast
10:55 PM 60.8 °F - 57.2 °F 88% 29.84 in 10.0 mi SW 12.7 mph 18.4 mph 0.02 in   Overcast
11:15 PM 60.8 °F - 55.4 °F 82% 29.84 in 10.0 mi SSW 11.5 mph - N/A   Mostly Cloudy
11:35 PM 59.0 °F - 55.4 °F 88% 29.84 in 10.0 mi SW 9.2 mph - N/A   Mostly Cloudy
11:55 PM 59.0 °F - 55.4 °F 88% 29.84 in 10.0 mi SSW 9.2 mph - N/A   Mostly Cloudy